This demonstration page uses our WeatherBlox Daily Observations layout. Learn more.

Left ArrowRight Arrow

Hourly Observations for August 4, 2017

Temp ( °F °C ) Dew Point ( °F °C ) Humidity (%) Winds ( mph kmh ) Pressure ( in mb ) Visibility ( mi km ) Precip ( " mm )
12:15 am 00:15 Clear 73 22.7 67 19.5 82 82 SSW 8 13 29.88 1012 10 16 0.00 0.00
12:35 am 00:35 Clear 73 23 67 19.4 80 80 SSW 12 19 29.88 1012 10 16 0.00 0.00
12:55 am 00:55 Clear 73 22.6 67 19.5 83 83 SSW 12 19 29.88 1012 10 16 0.00 0.00
1:15 am 01:15 Clear 73 22.7 67 19.3 81 81 SSW 12 19 29.88 1012 10 16 0.00 0.00
1:35 am 01:35 Clear 73 22.7 67 19.4 82 82 SSW 13 20 29.88 1012 10 16 0.00 0.00
1:55 am 01:55 Clear 73 22.5 67 19.4 83 83 SSW 13 20 29.88 1012 10 16 0.00 0.00
2:15 am 02:15 Partly Cloudy 73 22.5 67 19.5 83 83 SSW 10 17 29.85 1011 10 16 0.00 0.00
2:35 am 02:35 Mostly Cloudy 73 22.5 67 19.6 84 84 SW 9 15 29.85 1011 10 16 0.00 0.00
2:55 am 02:55 Mostly Cloudy with Nearby Thunderstorms 72 22 67 19.7 87 87 SW 8 13 29.85 1011 10 16 0.00 0.00
3:15 am 03:15 Cloudy with Thunderstorms 72 22 68 19.8 87 87 W 6 9 29.85 1011 10 16 0.00 0.00
3:35 am 03:35 Cloudy 69 20.8 66 19 90 90 W 13 20 29.88 1012 10 16 0.00 0.00
3:55 am 03:55 Cloudy with Light Rain 68 20.2 66 19 93 93 W 7 11 29.85 1011 10 16 0.00 0.00
4:15 am 04:15 Cloudy with Thunderstorms 68 20 67 19.2 95 95 WSW 5 7 29.91 1013 10 16 0.02 0.51
4:35 am 04:35 Cloudy 67 19.7 67 19.2 97 97 WSW 3 6 29.88 1012 10 16 0.02 0.51
4:55 am 04:55 Cloudy 68 19.8 67 19.5 98 98 W 6 9 29.91 1013 10 16 0.02 0.51
5:15 am 05:15 Cloudy 67 19.7 67 19.2 97 97 W 6 9 29.91 1013 10 16 0.00 0.00
5:35 am 05:35 Cloudy 67 19.7 66 19.1 96 96 W 8 13 29.91 1013 10 16 0.00 0.00
5:55 am 05:55 Cloudy 66 18.8 62 16.8 88 88 WNW 9 15 29.91 1013 10 16 0.00 0.00
6:15 am 06:15 Cloudy 64 17.8 61 16.1 90 90 WNW 10 17 29.91 1013 10 16 0.00 0.00
6:35 am 06:35 Cloudy 64 17.7 61 16.3 92 92 WNW 7 11 29.91 1013 10 16 0.00 0.00
6:55 am 06:55 Cloudy 63 17.3 61 16.2 93 93 WNW 6 9 29.91 1013 10 16 0.00 0.00
7:15 am 07:15 Cloudy 62 16.9 60 15.6 92 92 WNW 12 19 29.91 1013 10 16 0.00 0.00
7:35 am 07:35 Cloudy 62 16.6 60 15.4 93 93 WNW 9 15 29.94 1014 10 16 0.00 0.00
7:55 am 07:55 Cloudy 60 15.4 54 12 80 80 W 15 24 29.94 1014 10 16 0.00 0.00
8:15 am 08:15 Cloudy 58 14.6 52 11.2 80 80 W 13 20 29.94 1014 10 16 0.00 0.00
8:35 am 08:35 Mostly Cloudy 57 14.1 51 10.6 80 80 W 10 17 29.94 1014 10 16 0.00 0.00
8:55 am 08:55 Partly Cloudy 57 14 51 10.6 80 80 W 12 19 29.94 1014 10 16 0.00 0.00
9:15 am 09:15 Sunny 58 14.2 52 11 81 81 W 9 15 29.94 1014 10 16 0.00 0.00
9:35 am 09:35 Sunny 59 15.2 52 11.3 78 78 W 12 19 29.94 1014 10 16 0.00 0.00
9:55 am 09:55 Sunny 59 15 52 11.1 78 78 W 10 17 29.94 1014 10 16 0.00 0.00
10:15 am 10:15 Sunny 61 16.1 53 11.6 75 75 W 15 24 29.97 1015 10 16 0.00 0.00
10:35 am 10:35 Partly Cloudy 62 16.7 53 11.8 73 73 W 16 26 29.97 1015 10 16 0.00 0.00
10:55 am 10:55 Partly Cloudy 63 17.2 53 11.5 69 69 W 18 30 29.94 1014 10 16 0.00 0.00
11:15 am 11:15 Partly Cloudy 63 17.3 53 11.4 68 68 W 13 20 29.97 1015 10 16 0.00 0.00
11:35 am 11:35 Partly Cloudy 63 17.4 52 11.3 68 68 W 20 31 29.97 1015 10 16 0.00 0.00
11:55 am 11:55 Partly Cloudy 64 17.5 52 11.2 67 67 WSW 15 24 29.97 1015 10 16 0.00 0.00
12:15 pm 12:15 Mostly Cloudy 63 17.2 52 11 67 67 W 16 26 29.97 1015 10 16 0.00 0.00
12:35 pm 12:35 Cloudy 64 17.8 52 11.3 66 66 W 9 15 29.97 1015 10 16 0.00 0.00
12:55 pm 12:55 Cloudy 63 17.2 52 10.9 67 67 W 14 22 29.97 1015 10 16 0.00 0.00
1:15 pm 13:15 Mostly Cloudy 64 18 52 11.2 65 65 W 16 26 29.97 1015 10 16 0.00 0.00
1:35 pm 13:35 Cloudy 63 17.3 52 11 67 67 W 15 24 29.97 1015 10 16 0.00 0.00
1:55 pm 13:55 Cloudy 63 17.3 52 11 67 67 W 16 26 29.97 1015 10 16 0.00 0.00
2:15 pm 14:15 Cloudy 63 17.3 53 11.4 68 68 W 14 22 29.97 1015 10 16 0.00 0.00
2:35 pm 14:35 Cloudy 64 17.5 53 11.6 69 69 W 14 22 29.97 1015 10 16 0.00 0.00
2:55 pm 14:55 Cloudy 63 17.3 52 11.1 67 67 W 16 26 29.97 1015 10 16 0.00 0.00
3:15 pm 15:15 Cloudy 63 17 51 10.7 67 67 W 17 28 29.97 1015 10 16 0.00 0.00
3:35 pm 15:35 Cloudy 62 16.5 52 10.9 70 70 W 16 26 30.00 1016 10 16 0.00 0.00
3:55 pm 15:55 Cloudy 61 16.1 51 10.7 71 71 WNW 12 19 30.00 1016 10 16 0.00 0.00
4:15 pm 16:15 Cloudy 61 16 51 10.6 71 71 W 16 26 30.00 1016 10 16 0.00 0.00
4:35 pm 16:35 Cloudy 61 16.2 51 10.7 70 70 W 14 22 30.00 1016 10 16 0.00 0.00
4:55 pm 16:55 Cloudy 61 16.1 51 10.7 71 71 W 14 22 30.00 1016 10 16 0.00 0.00
5:15 pm 17:15 Cloudy 61 16.3 52 10.9 71 71 W 13 20 30.00 1016 10 16 0.00 0.00
5:35 pm 17:35 Cloudy 61 16.2 52 11 71 71 W 15 24 30.00 1016 10 16 0.00 0.00
5:55 pm 17:55 Cloudy 61 16.1 51 10.8 71 71 W 15 24 30.00 1016 10 16 0.00 0.00
6:15 pm 18:15 Cloudy 61 16.1 51 10.7 71 71 WNW 10 17 30.00 1016 10 16 0.00 0.00
6:35 pm 18:35 Cloudy 61 16.3 52 11 71 71 WNW 10 17 30.00 1016 10 16 0.00 0.00
6:55 pm 18:55 Cloudy 61 16 52 10.9 72 72 W 13 20 30.00 1016 10 16 0.00 0.00
7:15 pm 19:15 Cloudy 61 16 52 11 72 72 W 9 15 30.00 1016 10 16 0.00 0.00
7:35 pm 19:35 Cloudy 60 15.8 52 11.3 75 75 WNW 13 20 30.00 1016 10 16 0.00 0.00
7:55 pm 19:55 Cloudy 60 15.8 52 11.3 75 75 W 9 15 30.03 1017 10 16 0.00 0.00
8:15 pm 20:15 Mostly Cloudy 61 16.1 53 11.5 74 74 W 10 17 30.03 1017 10 16 0.00 0.00
8:35 pm 20:35 Partly Cloudy 60 15.5 52 11.3 76 76 W 7 11 30.03 1017 10 16 0.00 0.00
8:55 pm 20:55 Sunny 58 14.7 53 11.5 81 81 W 6 9 30.03 1017 10 16 0.00 0.00
9:15 pm 21:15 Partly Cloudy 58 14.2 53 11.5 84 84 W 5 7 30.03 1017 10 16 0.00 0.00
9:35 pm 21:35 Mostly Cloudy 58 14.5 54 12 85 85 WSW 6 9 30.03 1017 10 16 0.00 0.00
9:55 pm 21:55 Mostly Cloudy 57 14 54 12.1 88 88 WSW 5 7 30.03 1017 10 16 0.00 0.00
10:15 pm 22:15 Cloudy 58 14.4 54 12.3 87 87 WSW 3 6 30.03 1017 10 16 0.00 0.00
10:35 pm 22:35 Mostly Cloudy 57 14 54 12.1 88 88 WSW 5 7 30.06 1018 10 16 0.00 0.00
10:55 pm 22:55 Clear 56 13.5 54 12 91 91 WSW 5 7 30.06 1018 10 16 0.00 0.00
11:15 pm 23:15 Clear 55 12.9 53 11.7 92 92 SW 6 9 30.09 1019 10 16 0.00 0.00
11:35 pm 23:35 Clear 55 12.8 53 11.7 93 93 WSW 6 9 30.09 1019 10 16 0.00 0.00
11:55 pm 23:55 Clear 55 13 53 11.6 91 91 WSW 6 9 30.09 1019 10 16 0.00 0.00

Powered by AerisWeather